Location: *
(49.9853°N, 3.5569°E)
Time: 11:09:49
(UTC+00:00)

Cosmos 2341 Rocket - Pass Details

Date: 22 September 2019
Orbit: 967 x 1005 km, 82.9° (Epoch: 14 October)

Event Time Altitude Azimuth Distance (km) Brightness Sun altitude
Rises 18:29:50 0° 352° (N) 3,692 7.3 -8.0°
Reaches altitude 10° 18:32:25 10° 356° (N) 2,736 6.5 -8.5°
Maximum altitude 18:38:36 59° 76° (ENE) 1,116 4.1 -9.4°
Drops below altitude 10° 18:44:42 10° 155° (SSE) 2,704 6.0 -10.4°
Sets 18:47:14 0° 160° (SSE) 3,646 6.7 -10.8°
